Date,TemperatureHighF,TemperatureAvgF,TemperatureLowF,DewpointHighF,DewpointAvgF,DewpointLowF,HumidityHigh,HumidityAvg,HumidityLow,PressureMaxIn,PressureMinIn,WindSpeedMaxMPH,WindSpeedAvgMPH,GustSpeedMaxMPH,PrecipitationSumIn
2013-1-1,27.3,21.6,15.7,14.5,8.4,3.3,76,57,41,30.37,30.19,21,5,21,0.00
2013-1-2,27.5,20.0,11.2,13.1,6.0,-1.8,71,54,39,30.53,30.30,26,5,26,0.00
2013-1-3,37.0,23.9,11.9,3.4,-2.2,-6.4,52,34,16,30.52,30.28,20,3,20,0.00
2013-1-4,41.5,21.3,10.2,8.0,1.6,-4.1,61,44,23,30.39,30.15,14,1,14,0.00
2013-1-5,34.9,21.0,5.0,9.3,1.2,-99.9,70,47,27,30.54,30.25,17,-8,17,0.00
2013-1-6,45.4,35.1,12.8,7.1,3.3,-4.3,62,28,15,30.34,29.83,29,6,29,0.00
2013-1-7,43.5,36.4,30.9,13.8,2.8,-99.9,43,27,20,29.99,29.66,32,-3,32,0.00
2013-1-8,42.6,37.1,33.4,19.7,16.4,12.8,54,43,30,30.12,29.68,31,10,31,0.00
2013-1-9,52.5,45.5,35.9,20.5,14.7,7.9,51,30,18,30.15,29.64,34,9,34,0.00
2013-1-10,50.5,45.9,36.5,18.6,9.2,-99.9,46,24,16,29.64,29.29,30,-2,30,0.00
2013-1-11,36.5,12.8,4.1,20.6,4.2,-7.4,84,69,47,30.23,29.30,24,3,24,0.00
2013-1-12,9.9,4.9,0.3,-0.7,-5.1,-8.7,71,63,55,30.40,30.23,20,4,20,0.00
2013-1-13,11.9,4.5,-0.6,-2.3,-5.5,-8.6,74,63,46,30.50,30.37,13,2,13,0.00
2013-1-14,12.6,6.6,-3.7,-6.1,-9.5,-13.6,71,48,35,30.50,30.29,18,4,18,0.00
2013-1-15,31.9,24.1,12.1,13.3,3.7,-99.9,50,44,37,30.33,30.17,29,-3,29,0.00
2013-1-16,42.3,34.2,29.4,14.0,9.9,5.7,48,37,25,30.38,30.17,22,6,22,0.00
2013-1-17,46.1,34.4,17.5,10.6,6.7,2.6,60,34,19,30.52,30.11,22,5,22,0.00
2013-1-18,48.2,43.0,38.8,8.0,4.2,0.8,23,20,16,30.12,29.92,28,9,28,0.00
2013-1-19,47.6,40.8,34.7,8.9,4.7,0.5,30,22,15,30.18,29.97,25,7,25,0.00
2013-1-20,39.3,30.2,16.4,15.6,10.5,3.5,69,46,24,30.38,30.05,22,3,22,0.00
2013-1-21,48.3,39.2,15.6,14.3,7.5,1.6,70,29,18,30.38,29.94,26,7,26,0.00
2013-1-22,52.9,45.6,39.6,4.9,0.1,-5.2,21,15,10,30.02,29.92,22,8,22,0.00
2013-1-23,56.5,50.0,46.2,6.6,-0.3,-8.1,19,12,9,30.00,29.84,29,10,29,0.00
2013-1-24,49.9,46.2,40.1,28.2,19.4,5.4,57,37,17,30.04,29.78,32,10,32,0.00
2013-1-25,49.8,42.6,37.2,24.8,22.5,19.3,56,45,31,30.09,29.91,30,9,30,0.00
2013-1-26,51.4,45.5,39.6,27.0,24.1,20.4,52,43,35,29.91,29.59,28,6,28,0.00
2013-1-27,51.3,45.1,40.1,28.4,26.1,23.7,56,47,36,29.61,29.52,23,5,23,0.00
2013-1-28,38.6,26.3,17.7,27.0,21.2,10.9,89,81,61,29.88,29.55,9,1,9,0.05
2013-1-29,26.6,18.7,7.9,12.9,4.9,0.2,76,56,36,30.27,29.82,14,4,14,0.04
2013-1-30,32.4,24.4,4.3,18.4,9.6,-2.7,80,54,42,30.21,29.91,25,6,25,0.00
2013-1-31,41.2,29.1,19.2,23.1,17.4,13.0,82,63,39,30.28,30.01,16,3,16,0.02